| time (UTC) | temp F | wind direction | speed MPH | gust MPH | rain 1hr in | rain 24hr in | rain mn in | humidity % | barometer mb |
| 20260906231054 | 67 | 18 | 8.0 | 12.0 | 0.00 | 0.00 | 0.00 | 66 | 1014.0 |
| 20260906230555 | 67 | 342 | 9.0 | 12.0 | 0.00 | 0.00 | 0.00 | 65 | 1014.1 |
| 20260906230104 | 67 | 344 | 7.0 | 13.0 | 0.00 | 0.00 | 0.00 | 66 | 1013.9 |
| 20260906225554 | 67 | 332 | 8.0 | 13.0 | 0.00 | 0.00 | 0.00 | 65 | 1014.1 |
| 20260906225054 | 67 | 352 | 7.0 | 11.0 | 0.00 | 0.00 | 0.00 | 65 | 1014.2 |
| 20260906224602 | 66 | 342 | 8.0 | 11.0 | 0.00 | 0.00 | 0.00 | 65 | 1014.3 |
| 20260906224054 | 66 | 360 | 7.0 | 11.0 | 0.00 | 0.00 | 0.00 | 65 | 1014.4 |
| 20260906223555 | 66 | 342 | 9.0 | 13.0 | 0.00 | 0.00 | 0.00 | 66 | 1014.3 |
| 20260906223109 | 66 | 324 | 8.0 | 13.0 | 0.00 | 0.00 | 0.00 | 66 | 1014.4 |
| 20260906222554 | 66 | 9 | 6.0 | 11.0 | 0.00 | 0.00 | 0.00 | 66 | 1014.4 |
| 20260906222054 | 66 | 339 | 7.0 | 11.0 | 0.00 | 0.00 | 0.00 | 65 | 1014.5 |
| 20260906221607 | 66 | 360 | 9.0 | 12.0 | 0.00 | 0.00 | 0.00 | 66 | 1014.4 |
| 20260906221054 | 66 | 352 | 7.0 | 12.0 | 0.00 | 0.00 | 0.00 | 67 | 1014.4 |
| 20260906220554 | 66 | 321 | 7.0 | 11.0 | 0.00 | 0.00 | 0.00 | 66 | 1014.4 |
| 20260906220058 | 66 | 18 | 8.0 | 11.0 | 0.00 | 0.00 | 0.00 | 65 | 1014.4 |
| 20260906215558 | 66 | 9 | 7.0 | 11.0 | 0.00 | 0.00 | 0.00 | 66 | 1014.5 |
| 20260906215054 | 66 | 18 | 6.0 | 11.0 | 0.00 | 0.00 | 0.00 | 66 | 1014.4 |
| 20260906214607 | 66 | 16 | 7.0 | 12.0 | 0.00 | 0.00 | 0.00 | 66 | 1014.4 |
| 20260906214054 | 66 | 352 | 8.0 | 12.0 | 0.00 | 0.00 | 0.00 | 66 | 1014.3 |
| 20260906213555 | 66 | 326 | 5.0 | 12.0 | 0.00 | 0.00 | 0.00 | 66 | 1014.3 |
| 20260906213103 | 66 | 9 | 6.0 | 10.0 | 0.00 | 0.00 | 0.00 | 66 | 1014.3 |
| 20260906212554 | 66 | 9 | 5.0 | 11.0 | 0.00 | 0.00 | 0.00 | 67 | 1014.4 |
| 20260906212057 | 66 | 22 | 8.0 | 11.0 | 0.00 | 0.00 | 0.00 | 66 | 1014.4 |
| 20260906211600 | 66 | 352 | 7.0 | 11.0 | 0.00 | 0.00 | 0.00 | 67 | 1014.5 |
| 20260906211054 | 66 | 13 | 6.0 | 11.0 | 0.00 | 0.00 | 0.00 | 67 | 1014.6 |
| 20260906210554 | 66 | 342 | 5.0 | 10.0 | 0.00 | 0.00 | 0.00 | 68 | 1014.6 |
| 20260906210107 | 65 | 30 | 5.0 | 11.0 | 0.00 | 0.00 | 0.00 | 69 | 1014.6 |
| 20260906205554 | 65 | 9 | 8.0 | 11.0 | 0.00 | 0.00 | 0.00 | 69 | 1014.7 |
| 20260906205053 | 65 | 333 | 4.0 | 10.0 | 0.00 | 0.00 | 0.00 | 71 | 1014.7 |
| 20260906204615 | 65 | 5 | 2.0 | 9.0 | 0.00 | 0.00 | 0.00 | 71 | 1014.6 |
| 20260906204054 | 64 | 42 | 4.0 | 7.0 | 0.00 | 0.00 | 0.00 | 72 | 1014.8 |
| 20260906203554 | 64 | 15 | 2.0 | 4.0 | 0.00 | 0.00 | 0.00 | 73 | 1014.8 |
| 20260906203100 | 64 | 17 | 3.0 | 5.0 | 0.00 | 0.00 | 0.00 | 73 | 1015.0 |
| 20260906202555 | 64 | 32 | 3.0 | 5.0 | 0.00 | 0.00 | 0.00 | 77 | 1014.9 |
| 20260906202055 | 63 | 48 | 3.0 | 6.0 | 0.00 | 0.00 | 0.00 | 77 | 1014.9 |
| 20260906201604 | 63 | 43 | 2.0 | 5.0 | 0.00 | 0.00 | 0.00 | 77 | 1015.0 |
| 20260906201057 | 63 | 78 | 3.0 | 5.0 | 0.00 | 0.00 | 0.00 | 77 | 1015.3 |
| 20260906200553 | 63 | 65 | 3.0 | 8.0 | 0.00 | 0.00 | 0.00 | 77 | 1015.2 |
| 20260906200104 | 63 | 11 | 3.0 | 8.0 | 0.00 | 0.00 | 0.00 | 77 | 1015.2 |
| 20260906195555 | 63 | 36 | 3.0 | 8.0 | 0.00 | 0.00 | 0.00 | 77 | 1015.3 |
| 20260906195054 | 62 | 63 | 4.0 | 8.0 | 0.00 | 0.00 | 0.00 | 77 | 1015.4 |
| 20260906194608 | 62 | 30 | 3.0 | 7.0 | 0.00 | 0.00 | 0.00 | 77 | 1015.3 |
| 20260906194054 | 62 | 71 | 4.0 | 7.0 | 0.00 | 0.00 | 0.00 | 78 | 1015.3 |
| 20260906193555 | 61 | 34 | 4.0 | 10.0 | 0.00 | 0.00 | 0.00 | 78 | 1015.3 |
| 20260906193102 | 61 | 57 | 5.0 | 12.0 | 0.00 | 0.00 | 0.00 | 78 | 1015.4 |
| 20260906192555 | 61 | 72 | 6.0 | 12.0 | 0.00 | 0.00 | 0.00 | 78 | 1015.4 |
| 20260906192056 | 61 | 42 | 6.0 | 12.0 | 0.00 | 0.00 | 0.00 | 78 | 1015.4 |
| 20260906191612 | 61 | 82 | 7.0 | 14.0 | 0.00 | 0.00 | 0.00 | 79 | 1015.3 |
| 20260906191053 | 60 | 38 | 9.0 | 14.0 | 0.00 | 0.00 | 0.00 | 79 | 1015.4 |
| 20260906190555 | 60 | 54 | 8.0 | 14.0 | 0.00 | 0.00 | 0.00 | 79 | 1015.5 |
| 20260906190105 | 60 | 58 | 8.0 | 14.0 | 0.00 | 0.00 | 0.00 | 79 | 1015.4 |
| 20260906185554 | 60 | 65 | 7.0 | 13.0 | 0.00 | 0.00 | 0.00 | 80 | 1015.5 |
| 20260906185054 | 60 | 42 | 7.0 | 13.0 | 0.00 | 0.00 | 0.00 | 82 | 1015.5 |
| 20260906184611 | 59 | 47 | 6.0 | 14.0 | 0.00 | 0.00 | 0.00 | 82 | 1015.7 |
| 20260906184056 | 59 | 55 | 8.0 | 14.0 | 0.00 | 0.00 | 0.00 | 82 | 1015.8 |
| 20260906183555 | 59 | 60 | 9.0 | 15.0 | 0.00 | 0.00 | 0.00 | 83 | 1016.0 |
| 20260906183115 | 59 | 48 | 11.0 | 15.0 | 0.00 | 0.00 | 0.00 | 83 | 1016.1 |
| 20260906182554 | 59 | 32 | 10.0 | 17.0 | 0.00 | 0.00 | 0.00 | 85 | 1016.0 |
| 20260906182058 | 59 | 37 | 10.0 | 15.0 | 0.00 | 0.00 | 0.00 | 87 | 1016.0 |
| 20260906181605 | 59 | 68 | 10.0 | 15.0 | 0.00 | 0.00 | 0.00 | 88 | 1015.7 |
| 20260906181054 | 59 | 61 | 10.0 | 14.0 | 0.00 | 0.00 | 0.00 | 87 | 1015.7 |
| 20260906180554 | 59 | 67 | 8.0 | 13.0 | 0.00 | 0.00 | 0.00 | 87 | 1015.9 |
| 20260906180125 | 59 | 40 | 7.0 | 12.0 | 0.00 | 0.00 | 0.00 | 87 | 1016.1 |
| 20260906175557 | 59 | 19 | 7.0 | 11.0 | 0.00 | 0.00 | 0.00 | 87 | 1016.4 |
| 20260906175058 | 58 | 23 | 7.0 | 11.0 | 0.00 | 0.00 | 0.00 | 87 | 1016.5 |
| 20260906174621 | 57 | 350 | 7.0 | 11.0 | 0.00 | 0.00 | 0.00 | 87 | 1016.6 |
| 20260906174054 | 57 | 346 | 8.0 | 11.0 | 0.00 | 0.00 | 0.00 | 88 | 1016.5 |
| 20260906173555 | 57 | 333 | 9.0 | 12.0 | 0.00 | 0.00 | 0.00 | 89 | 1016.6 |
| 20260906173105 | 57 | 336 | 9.0 | 12.0 | 0.00 | 0.00 | 0.00 | 89 | 1016.7 |
| 20260906172556 | 57 | 317 | 9.0 | 12.0 | 0.00 | 0.00 | 0.00 | 89 | 1016.6 |
| 20260906172054 | 56 | 326 | 9.0 | 13.0 | 0.00 | 0.00 | 0.00 | 90 | 1016.7 |
| 20260906171615 | 56 | 322 | 10.0 | 13.0 | 0.00 | 0.00 | 0.00 | 90 | 1016.7 |
| 20260906171054 | 56 | 320 | 11.0 | 14.0 | 0.00 | 0.00 | 0.00 | 90 | 1016.8 |
| 20260906170554 | 55 | 327 | 11.0 | 14.0 | 0.00 | 0.00 | 0.00 | 90 | 1016.8 |
| 20260906170112 | 55 | 325 | 10.0 | 14.0 | 0.00 | 0.00 | 0.00 | 90 | 1016.9 |
| 20260906165554 | 55 | 318 | 11.0 | 15.0 | 0.00 | 0.00 | 0.00 | 90 | 1017.0 |
| 20260906165055 | 55 | 327 | 11.0 | 15.0 | 0.00 | 0.00 | 0.00 | 90 | 1017.1 |
| 20260906164602 | 55 | 307 | 11.0 | 15.0 | 0.00 | 0.00 | 0.00 | 90 | 1017.1 |
| 20260906164054 | 54 | 314 | 10.0 | 13.0 | 0.00 | 0.00 | 0.00 | 89 | 1017.0 |
| 20260906163554 | 54 | 323 | 10.0 | 14.0 | 0.00 | 0.00 | 0.00 | 89 | 1017.0 |
| 20260906163113 | 55 | 315 | 10.0 | 14.0 | 0.00 | 0.00 | 0.00 | 89 | 1017.1 |
| 20260906162558 | 55 | 336 | 10.0 | 14.0 | 0.00 | 0.00 | 0.00 | 88 | 1017.1 |
| 20260906162053 | 55 | 337 | 11.0 | 14.0 | 0.00 | 0.00 | 0.00 | 88 | 1017.1 |
| 20260906161623 | 55 | 319 | 11.0 | 15.0 | 0.00 | 0.00 | 0.00 | 87 | 1017.1 |
| 20260906161055 | 55 | 344 | 9.0 | 15.0 | 0.00 | 0.00 | 0.00 | 87 | 1017.2 |
| 20260906160554 | 55 | 311 | 11.0 | 15.0 | 0.00 | 0.00 | 0.00 | 86 | 1017.3 |
| 20260906160104 | 56 | 333 | 12.0 | 15.0 | 0.00 | 0.00 | 0.00 | 85 | 1017.3 |
| 20260906155558 | 56 | 327 | 11.0 | 15.0 | 0.00 | 0.00 | 0.00 | 83 | 1017.3 |
| 20260906155054 | 57 | 305 | 11.0 | 15.0 | 0.00 | 0.00 | 0.00 | 83 | 1017.4 |
| 20260906154605 | 57 | 317 | 9.0 | 14.0 | 0.00 | 0.00 | 0.00 | 83 | 1017.4 |
| 20260906154053 | 57 | 316 | 11.0 | 14.0 | 0.00 | 0.00 | 0.00 | 83 | 1017.4 |
| 20260906153556 | 57 | 317 | 10.0 | 14.0 | 0.00 | 0.00 | 0.00 | 83 | 1017.4 |
| 20260906153121 | 57 | 309 | 9.0 | 14.0 | 0.00 | 0.00 | 0.00 | 83 | 1017.5 |
| 20260906152554 | 57 | 321 | 11.0 | 15.0 | 0.00 | 0.00 | 0.00 | 83 | 1017.4 |
| 20260906152054 | 57 | 324 | 10.0 | 14.0 | 0.00 | 0.00 | 0.00 | 83 | 1017.2 |
| 20260906151602 | 58 | 303 | 9.0 | 14.0 | 0.00 | 0.00 | 0.00 | 83 | 1017.4 |
| 20260906151055 | 58 | 298 | 10.0 | 14.0 | 0.00 | 0.00 | 0.00 | 82 | 1017.6 |
| 20260906150555 | 59 | 292 | 5.0 | 7.0 | 0.00 | 0.00 | 0.00 | 84 | 1017.7 |
| 20260906150110 | 59 | 311 | 3.0 | 4.0 | 0.00 | 0.00 | 0.00 | 84 | 1017.8 |
| 20260906145556 | 59 | 298 | 3.0 | 4.0 | 0.00 | 0.00 | 0.00 | 84 | 1017.8 |
| 20260906145056 | 59 | 304 | 2.0 | 3.0 | 0.00 | 0.00 | 0.00 | 84 | 1018.0 |
| 20260906144605 | 59 | 305 | 2.0 | 5.0 | 0.00 | 0.00 | 0.00 | 84 | 1018.0 |
| 20260906144054 | 59 | 15 | 1.0 | 6.0 | 0.00 | 0.00 | 0.00 | 84 | 1017.9 |
| 20260906143555 | 59 | 26 | 3.0 | 7.0 | 0.00 | 0.00 | 0.00 | 83 | 1017.7 |
| 20260906143103 | 59 | 41 | 4.0 | 7.0 | 0.00 | 0.00 | 0.00 | 83 | 1017.7 |
| 20260906142554 | 59 | 71 | 4.0 | 8.0 | 0.00 | 0.00 | 0.00 | 83 | 1017.6 |
| 20260906142054 | 59 | 69 | 5.0 | 10.0 | 0.00 | 0.00 | 0.00 | 83 | 1017.4 |
| 20260906141621 | 59 | 74 | 5.0 | 10.0 | 0.00 | 0.00 | 0.00 | 83 | 1017.4 |
| 20260906141054 | 59 | 74 | 4.0 | 8.0 | 0.00 | 0.00 | 0.00 | 83 | 1017.2 |
| 20260906140555 | 59 | 53 | 5.0 | 10.0 | 0.00 | 0.00 | 0.00 | 83 | 1017.4 |
| 20260906140103 | 59 | 80 | 5.0 | 10.0 | 0.00 | 0.00 | 0.00 | 83 | 1017.4 |
| 20260906135555 | 58 | 38 | 5.0 | 10.0 | 0.00 | 0.00 | 0.00 | 83 | 1017.2 |
| 20260906135054 | 58 | 72 | 5.0 | 9.0 | 0.00 | 0.00 | 0.00 | 83 | 1017.5 |
| 20260906134603 | 58 | 75 | 4.0 | 9.0 | 0.00 | 0.00 | 0.00 | 83 | 1017.6 |
| 20260906134052 | 58 | 66 | 5.0 | 10.0 | 0.00 | 0.00 | 0.00 | 83 | 1017.7 |
| 20260906133554 | 58 | 56 | 4.0 | 10.0 | 0.00 | 0.00 | 0.00 | 83 | 1017.7 |
| 20260906133111 | 58 | 58 | 7.0 | 10.0 | 0.00 | 0.00 | 0.00 | 83 | 1017.5 |
| 20260906132554 | 58 | 38 | 7.0 | 11.0 | 0.00 | 0.00 | 0.00 | 83 | 1017.5 |
| 20260906132054 | 58 | 57 | 8.0 | 11.0 | 0.00 | 0.00 | 0.00 | 82 | 1017.6 |
| 20260906131610 | 58 | 62 | 7.0 | 11.0 | 0.00 | 0.00 | 0.00 | 82 | 1017.6 |
| 20260906131054 | 58 | 24 | 6.0 | 13.0 | 0.00 | 0.00 | 0.00 | 82 | 1017.7 |
| 20260906130554 | 58 | 51 | 7.0 | 13.0 | 0.00 | 0.00 | 0.00 | 83 | 1017.6 |
| 20260906130106 | 58 | 22 | 9.0 | 12.0 | 0.00 | 0.00 | 0.00 | 83 | 1017.7 |
| 20260906125557 | 58 | 24 | 8.0 | 13.0 | 0.00 | 0.00 | 0.00 | 82 | 1017.6 |
| 20260906125055 | 58 | 41 | 10.0 | 13.0 | 0.00 | 0.00 | 0.00 | 83 | 1017.5 |
| 20260906124606 | 58 | 25 | 11.0 | 13.0 | 0.00 | 0.00 | 0.00 | 83 | 1017.5 |
| 20260906124054 | 58 | 35 | 9.0 | 13.0 | 0.00 | 0.00 | 0.00 | 83 | 1017.7 |
| 20260906123554 | 58 | 29 | 9.0 | 14.0 | 0.00 | 0.00 | 0.00 | 82 | 1017.9 |
| 20260906123109 | 58 | 25 | 10.0 | 14.0 | 0.00 | 0.00 | 0.00 | 82 | 1017.7 |
| 20260906122554 | 58 | 22 | 11.0 | 13.0 | 0.00 | 0.00 | 0.00 | 83 | 1017.7 |
| 20260906122054 | 58 | 29 | 8.0 | 16.0 | 0.00 | 0.00 | 0.00 | 83 | 1017.6 |
| 20260906121615 | 57 | 28 | 13.0 | 16.0 | 0.00 | 0.00 | 0.00 | 83 | 1017.3 |
| 20260906121054 | 57 | 360 | 12.0 | 16.0 | 0.00 | 0.00 | 0.00 | 83 | 1017.0 |
| 20260906120557 | 57 | 36 | 12.0 | 16.0 | 0.00 | 0.00 | 0.00 | 83 | 1017.1 |
| 20260906120113 | 57 | 26 | 10.0 | 14.0 | 0.00 | 0.00 | 0.00 | 83 | 1017.2 |
| 20260906115555 | 57 | 9 | 11.0 | 14.0 | 0.00 | 0.00 | 0.00 | 83 | 1017.2 |
| 20260906115055 | 57 | 5 | 11.0 | 14.0 | 0.00 | 0.00 | 0.00 | 83 | 1017.3 |
| 20260906114609 | 57 | 23 | 11.0 | 15.0 | 0.00 | 0.00 | 0.00 | 83 | 1017.3 |
| 20260906114052 | 57 | 9 | 11.0 | 15.0 | 0.00 | 0.00 | 0.00 | 83 | 1017.4 |
| 20260906113554 | 57 | 9 | 10.0 | 15.0 | 0.00 | 0.00 | 0.00 | 83 | 1017.3 |
| 20260906113103 | 57 | 26 | 9.0 | 13.0 | 0.00 | 0.00 | 0.00 | 83 | 1017.5 |
| 20260906112554 | 57 | 360 | 9.0 | 14.0 | 0.00 | 0.00 | 0.00 | 83 | 1017.4 |
| 20260906112054 | 57 | 13 | 10.0 | 15.0 | 0.00 | 0.00 | 0.00 | 83 | 1017.5 |
| 20260906111559 | 57 | 13 | 10.0 | 15.0 | 0.00 | 0.00 | 0.00 | 83 | 1017.3 |
| 20260906111054 | 57 | 360 | 10.0 | 15.0 | 0.00 | 0.00 | 0.00 | 83 | 1017.4 |
| 20260906110556 | 57 | 352 | 11.0 | 15.0 | 0.00 | 0.00 | 0.00 | 83 | 1017.4 |
| 20260906110103 | 57 | 9 | 11.0 | 16.0 | 0.00 | 0.00 | 0.00 | 83 | 1017.4 |
| 20260906105554 | 57 | 350 | 11.0 | 16.0 | 0.00 | 0.00 | 0.00 | 83 | 1017.4 |
| 20260906105053 | 57 | 360 | 10.0 | 14.0 | 0.00 | 0.00 | 0.00 | 83 | 1017.6 |
| 20260906104601 | 57 | 9 | 11.0 | 14.0 | 0.00 | 0.00 | 0.00 | 83 | 1017.7 |
| 20260906104055 | 57 | 352 | 10.0 | 14.0 | 0.00 | 0.00 | 0.00 | 83 | 1017.6 |
| 20260906103556 | 57 | 347 | 10.0 | 13.0 | 0.00 | 0.00 | 0.00 | 83 | 1017.7 |
| 20260906103109 | 57 | 10 | 10.0 | 13.0 | 0.00 | 0.00 | 0.00 | 83 | 1017.7 |
| 20260906102554 | 56 | 10 | 10.0 | 14.0 | 0.00 | 0.00 | 0.00 | 83 | 1017.9 |
| 20260906102053 | 56 | 5 | 11.0 | 14.0 | 0.00 | 0.00 | 0.00 | 83 | 1017.7 |
| 20260906101617 | 56 | 5 | 10.0 | 13.0 | 0.00 | 0.00 | 0.00 | 83 | 1017.7 |
| 20260906101137 | 56 | 346 | 10.0 | 15.0 | 0.00 | 0.00 | 0.00 | 83 | 1017.8 |
| 20260906100554 | 56 | 352 | 11.0 | 15.0 | 0.00 | 0.00 | 0.00 | 83 | 1017.8 |
| 20260906100059 | 56 | 352 | 11.0 | 14.0 | 0.00 | 0.00 | 0.00 | 82 | 1017.7 |
| 20260906095554 | 56 | 9 | 11.0 | 15.0 | 0.00 | 0.00 | 0.00 | 82 | 1017.6 |
| 20260906095054 | 57 | 15 | 10.0 | 14.0 | 0.00 | 0.00 | 0.00 | 82 | 1017.6 |
| 20260906094607 | 57 | 5 | 11.0 | 16.0 | 0.00 | 0.00 | 0.00 | 81 | 1017.6 |
| 20260906094054 | 57 | 352 | 13.0 | 17.0 | 0.00 | 0.00 | 0.00 | 81 | 1017.6 |
| 20260906093555 | 57 | 360 | 12.0 | 17.0 | 0.00 | 0.00 | 0.00 | 81 | 1017.5 |
| 20260906093102 | 57 | 13 | 14.0 | 17.0 | 0.00 | 0.00 | 0.00 | 81 | 1017.6 |
| 20260906092551 | 57 | 17 | 14.0 | 17.0 | 0.00 | 0.00 | 0.00 | 80 | 1017.6 |
| 20260906092054 | 57 | 360 | 13.0 | 16.0 | 0.00 | 0.00 | 0.00 | 80 | 1017.5 |
| 20260906091603 | 57 | 360 | 13.0 | 16.0 | 0.00 | 0.00 | 0.00 | 80 | 1017.7 |
| 20260906091053 | 57 | 360 | 11.0 | 15.0 | 0.00 | 0.00 | 0.00 | 80 | 1017.7 |
| 20260906090556 | 57 | 360 | 10.0 | 15.0 | 0.00 | 0.00 | 0.00 | 80 | 1017.8 |
| 20260906085554 | 57 | 9 | 10.0 | 15.0 | 0.00 | 0.00 | 0.00 | 79 | 1017.7 |
| 20260906085054 | 57 | 10 | 11.0 | 15.0 | 0.00 | 0.00 | 0.00 | 79 | 1017.7 |
| 20260906084601 | 57 | 9 | 11.0 | 16.0 | 0.00 | 0.00 | 0.00 | 79 | 1017.8 |
| 20260906084054 | 57 | 5 | 12.0 | 16.0 | 0.00 | 0.00 | 0.00 | 79 | 1017.8 |
| 20260906083554 | 57 | 9 | 12.0 | 17.0 | 0.00 | 0.00 | 0.00 | 79 | 1017.9 |
| 20260906083105 | 57 | 9 | 12.0 | 17.0 | 0.00 | 0.00 | 0.00 | 79 | 1018.0 |
| 20260906082558 | 57 | 5 | 10.0 | 14.0 | 0.00 | 0.00 | 0.00 | 78 | 1018.0 |
| 20260906082054 | 57 | 18 | 9.0 | 14.0 | 0.00 | 0.00 | 0.00 | 78 | 1018.0 |
| 20260906081605 | 58 | 13 | 9.0 | 13.0 | 0.00 | 0.00 | 0.00 | 78 | 1018.1 |
| 20260906081054 | 57 | 15 | 9.0 | 13.0 | 0.00 | 0.00 | 0.00 | 79 | 1018.3 |
| 20260906080555 | 57 | 11 | 9.0 | 12.0 | 0.00 | 0.00 | 0.00 | 79 | 1018.4 |
| 20260906075554 | 57 | 5 | 8.0 | 12.0 | 0.00 | 0.00 | 0.00 | 79 | 1018.5 |
| 20260906075054 | 57 | 20 | 8.0 | 14.0 | 0.00 | 0.00 | 0.00 | 78 | 1018.5 |
| 20260906074602 | 57 | 350 | 9.0 | 13.0 | 0.00 | 0.00 | 0.00 | 78 | 1018.4 |
| 20260906074054 | 57 | 19 | 9.0 | 16.0 | 0.00 | 0.00 | 0.00 | 78 | 1018.5 |
| 20260906073557 | 58 | 360 | 11.0 | 16.0 | 0.00 | 0.00 | 0.00 | 77 | 1018.5 |
| 20260906073103 | 58 | 14 | 11.0 | 14.0 | 0.00 | 0.00 | 0.00 | 77 | 1018.4 |
| 20260906072554 | 58 | 9 | 10.0 | 14.0 | 0.00 | 0.00 | 0.00 | 77 | 1018.6 |
| 20260906072053 | 58 | 345 | 11.0 | 14.0 | 0.00 | 0.00 | 0.00 | 77 | 1018.5 |
| 20260906071605 | 58 | 5 | 10.0 | 15.0 | 0.00 | 0.00 | 0.00 | 77 | 1018.6 |
| 20260906071055 | 58 | 13 | 10.0 | 15.0 | 0.00 | 0.00 | 0.00 | 77 | 1018.6 |
| 20260906070659 | 58 | 360 | 11.0 | 16.0 | 0.00 | 0.00 | 0.00 | 77 | 1018.7 |
| 20260906065554 | 58 | 345 | 11.0 | 17.0 | 0.00 | 0.00 | 0.00 | 76 | 1018.8 |
| 20260906065054 | 58 | 360 | 12.0 | 16.0 | 0.00 | 0.00 | 0.00 | 76 | 1018.8 |
| 20260906064603 | 58 | 352 | 12.0 | 17.0 | 0.00 | 0.00 | 0.00 | 76 | 1018.8 |
| 20260906064054 | 58 | 14 | 11.0 | 17.0 | 0.00 | 0.00 | 0.00 | 76 | 1018.8 |
| 20260906063554 | 58 | 350 | 11.0 | 15.0 | 0.00 | 0.00 | 0.00 | 75 | 1018.8 |
| 20260906063102 | 59 | 352 | 10.0 | 15.0 | 0.00 | 0.00 | 0.00 | 75 | 1019.1 |
| 20260906062554 | 59 | 9 | 11.0 | 15.0 | 0.00 | 0.00 | 0.00 | 75 | 1019.1 |
| 20260906062054 | 59 | 9 | 11.0 | 14.0 | 0.00 | 0.00 | 0.00 | 75 | 1019.1 |
| 20260906061606 | 58 | 352 | 10.0 | 14.0 | 0.00 | 0.00 | 0.00 | 75 | 1019.2 |
| 20260906061054 | 59 | 352 | 10.0 | 15.0 | 0.00 | 0.00 | 0.00 | 74 | 1019.2 |
| 20260906060554 | 59 | 9 | 12.0 | 17.0 | 0.00 | 0.00 | 0.00 | 74 | 1019.1 |
| 20260906060134 | 59 | 14 | 12.0 | 17.0 | 0.00 | 0.00 | 0.00 | 74 | 1019.1 |
| 20260906055552 | 59 | 11 | 11.0 | 17.0 | 0.00 | 0.00 | 0.00 | 73 | 1018.9 |
| 20260906055055 | 59 | 12 | 11.0 | 17.0 | 0.00 | 0.00 | 0.00 | 73 | 1018.9 |
| 20260906054616 | 59 | 28 | 11.0 | 16.0 | 0.00 | 0.00 | 0.00 | 72 | 1018.9 |
| 20260906054055 | 59 | 34 | 11.0 | 16.0 | 0.00 | 0.00 | 0.00 | 72 | 1018.8 |
| 20260906053555 | 59 | 22 | 13.0 | 17.0 | 0.00 | 0.00 | 0.00 | 71 | 1018.8 |
| 20260906053059 | 59 | 9 | 11.0 | 17.0 | 0.00 | 0.00 | 0.00 | 71 | 1018.8 |
| 20260906052554 | 60 | 9 | 13.0 | 17.0 | 0.00 | 0.00 | 0.00 | 71 | 1018.8 |
| 20260906052053 | 60 | 17 | 13.0 | 16.0 | 0.00 | 0.00 | 0.00 | 70 | 1018.8 |
| 20260906051605 | 60 | 22 | 11.0 | 17.0 | 0.00 | 0.00 | 0.00 | 69 | 1018.6 |
| 20260906051059 | 60 | 5 | 12.0 | 17.0 | 0.00 | 0.00 | 0.00 | 69 | 1018.5 |
| 20260906050557 | 60 | 16 | 13.0 | 17.0 | 0.00 | 0.00 | 0.00 | 69 | 1018.5 |
| 20260906050105 | 60 | 26 | 12.0 | 16.0 | 0.00 | 0.00 | 0.00 | 69 | 1018.5 |
| 20260906045554 | 60 | 17 | 11.0 | 16.0 | 0.00 | 0.00 | 0.00 | 68 | 1018.5 |
| 20260906045054 | 60 | 17 | 11.0 | 16.0 | 0.00 | 0.00 | 0.00 | 68 | 1018.6 |
| 20260906044559 | 60 | 360 | 13.0 | 16.0 | 0.00 | 0.00 | 0.00 | 68 | 1018.6 |
| 20260906044057 | 60 | 352 | 13.0 | 16.0 | 0.00 | 0.00 | 0.00 | 68 | 1018.4 |
| 20260906043555 | 60 | 343 | 10.0 | 16.0 | 0.00 | 0.00 | 0.00 | 68 | 1018.5 |
| 20260906043104 | 60 | 331 | 12.0 | 16.0 | 0.00 | 0.00 | 0.00 | 68 | 1018.6 |
| 20260906042555 | 60 | 352 | 13.0 | 15.0 | 0.00 | 0.00 | 0.00 | 68 | 1018.3 |
| 20260906042055 | 60 | 352 | 12.0 | 17.0 | 0.00 | 0.00 | 0.00 | 68 | 1018.1 |
| 20260906041602 | 60 | 341 | 12.0 | 18.0 | 0.00 | 0.00 | 0.00 | 68 | 1017.9 |
| 20260906041055 | 60 | 5 | 12.0 | 19.0 | 0.00 | 0.00 | 0.00 | 67 | 1017.9 |
| 20260906040553 | 60 | 9 | 14.0 | 19.0 | 0.00 | 0.00 | 0.00 | 67 | 1017.6 |
| 20260906040106 | 60 | 17 | 14.0 | 18.0 | 0.00 | 0.00 | 0.00 | 67 | 1017.6 |
| 20260906035554 | 60 | 352 | 13.0 | 18.0 | 0.00 | 0.00 | 0.00 | 67 | 1017.6 |
| 20260906035053 | 60 | 10 | 13.0 | 18.0 | 0.00 | 0.00 | 0.00 | 66 | 1017.6 |
| 20260906034606 | 60 | 9 | 14.0 | 20.0 | 0.00 | 0.00 | 0.00 | 66 | 1017.7 |
| 20260906034054 | 60 | 360 | 14.0 | 20.0 | 0.00 | 0.00 | 0.00 | 65 | 1017.8 |
| 20260906033554 | 60 | 360 | 14.0 | 19.0 | 0.00 | 0.00 | 0.00 | 65 | 1017.9 |
| 20260906033100 | 60 | 360 | 15.0 | 19.0 | 0.00 | 0.00 | 0.00 | 65 | 1017.9 |
| 20260906032553 | 61 | 9 | 14.0 | 20.0 | 0.00 | 0.00 | 0.00 | 64 | 1017.9 |
| 20260906032054 | 61 | 9 | 16.0 | 20.0 | 0.00 | 0.00 | 0.00 | 64 | 1017.8 |
| 20260906031605 | 61 | 5 | 16.0 | 20.0 | 0.00 | 0.00 | 0.00 | 64 | 1017.9 |
| 20260906031054 | 61 | 9 | 14.0 | 20.0 | 0.00 | 0.00 | 0.00 | 63 | 1017.8 |
| 20260906030553 | 61 | 11 | 13.0 | 20.0 | 0.00 | 0.00 | 0.00 | 63 | 1017.7 |
| 20260906030106 | 61 | 360 | 13.0 | 23.0 | 0.00 | 0.00 | 0.00 | 63 | 1017.7 |
| 20260906025554 | 62 | 31 | 14.0 | 23.0 | 0.00 | 0.00 | 0.00 | 62 | 1017.4 |
| 20260906025056 | 62 | 21 | 15.0 | 23.0 | 0.00 | 0.00 | 0.00 | 62 | 1017.0 |
| 20260906024621 | 62 | 24 | 16.0 | 22.0 | 0.00 | 0.00 | 0.00 | 62 | 1016.8 |
| 20260906024054 | 62 | 29 | 15.0 | 22.0 | 0.00 | 0.00 | 0.00 | 62 | 1016.8 |
| 20260906023554 | 62 | 26 | 17.0 | 21.0 | 0.00 | 0.00 | 0.00 | 61 | 1016.6 |
| 20260906023101 | 63 | 35 | 16.0 | 23.0 | 0.00 | 0.00 | 0.00 | 61 | 1016.5 |
| 20260906022555 | 63 | 34 | 18.0 | 24.0 | 0.00 | 0.00 | 0.00 | 61 | 1016.5 |
| 20260906022054 | 63 | 28 | 17.0 | 24.0 | 0.00 | 0.00 | 0.00 | 59 | 1016.5 |
| 20260906021607 | 64 | 24 | 15.0 | 22.0 | 0.00 | 0.00 | 0.00 | 58 | 1016.6 |
| 20260906021055 | 64 | 18 | 16.0 | 22.0 | 0.00 | 0.00 | 0.00 | 57 | 1016.5 |
| 20260906020554 | 65 | 28 | 14.0 | 21.0 | 0.00 | 0.00 | 0.00 | 57 | 1016.4 |
| 20260906020109 | 65 | 46 | 15.0 | 21.0 | 0.00 | 0.00 | 0.00 | 56 | 1016.4 |
| 20260906015558 | 65 | 22 | 14.0 | 21.0 | 0.00 | 0.00 | 0.00 | 55 | 1016.4 |
| 20260906015053 | 66 | 36 | 15.0 | 23.0 | 0.00 | 0.00 | 0.00 | 55 | 1016.4 |
| 20260906014607 | 66 | 38 | 16.0 | 23.0 | 0.00 | 0.00 | 0.00 | 54 | 1016.4 |
| 20260906014053 | 67 | 24 | 18.0 | 23.0 | 0.00 | 0.00 | 0.00 | 52 | 1016.4 |
| 20260906013555 | 67 | 17 | 17.0 | 22.0 | 0.00 | 0.00 | 0.00 | 51 | 1016.2 |
| 20260906013117 | 68 | 37 | 15.0 | 21.0 | 0.00 | 0.00 | 0.00 | 49 | 1016.1 |
| 20260906012554 | 69 | 26 | 15.0 | 22.0 | 0.00 | 0.00 | 0.00 | 47 | 1016.3 |
| 20260906012055 | 70 | 25 | 16.0 | 22.0 | 0.00 | 0.00 | 0.00 | 45 | 1016.2 |
| 20260906011602 | 72 | 35 | 14.0 | 19.0 | 0.00 | 0.00 | 0.00 | 40 | 1016.2 |
| 20260906011056 | 73 | 38 | 12.0 | 18.0 | 0.00 | 0.00 | 0.00 | 36 | 1016.2 |
| 20260906010553 | 73 | 44 | 13.0 | 18.0 | 0.00 | 0.00 | 0.00 | 35 | 1016.1 |
| 20260906010140 | 74 | 43 | 10.0 | 15.0 | 0.00 | 0.00 | 0.00 | 35 | 1016.1 |
| 20260906005554 | 74 | 69 | 11.0 | 14.0 | 0.00 | 0.00 | 0.00 | 34 | 1016.1 |
| 20260906005057 | 74 | 53 | 10.0 | 14.0 | 0.00 | 0.00 | 0.00 | 34 | 1016.1 |
| 20260906004617 | 75 | 49 | 9.0 | 14.0 | 0.00 | 0.00 | 0.00 | 33 | 1016.2 |
| 20260906004053 | 75 | 40 | 10.0 | 14.0 | 0.00 | 0.00 | 0.00 | 33 | 1016.2 |
| 20260906003553 | 75 | 52 | 7.0 | 13.0 | 0.00 | 0.00 | 0.00 | 33 | 1016.3 |
| 20260906003106 | 75 | 35 | 10.0 | 14.0 | 0.00 | 0.00 | 0.00 | 33 | 1016.2 |
| 20260906002553 | 75 | 63 | 10.0 | 15.0 | 0.00 | 0.00 | 0.00 | 33 | 1016.2 |
| 20260906002056 | 75 | 63 | 9.0 | 15.0 | 0.00 | 0.00 | 0.00 | 32 | 1016.2 |
| 20260906001607 | 75 | 69 | 11.0 | 15.0 | 0.00 | 0.00 | 0.00 | 32 | 1016.3 |
| 20260906001053 | 76 | 25 | 6.0 | 13.0 | 0.00 | 0.00 | 0.00 | 32 | 1016.4 |
| 20260906000555 | 76 | 66 | 5.0 | 14.0 | 0.00 | 0.00 | 0.00 | 32 | 1016.4 |
| 20260906000101 | 76 | 74 | 9.0 | 14.0 | 0.00 | 0.00 | 0.00 | 32 | 1016.4 |
| 20260905235554 | 76 | 5 | 10.0 | 14.0 | 0.00 | 0.00 | 0.00 | 32 | 1016.4 |
| 20260905235054 | 76 | 29 | 7.0 | 14.0 | 0.00 | 0.00 | 0.00 | 32 | 1016.4 |
| 20260905234611 | 77 | 49 | 6.0 | 13.0 | 0.00 | 0.00 | 0.00 | 32 | 1016.3 |
| 20260905234054 | 76 | 65 | 6.0 | 13.0 | 0.00 | 0.00 | 0.00 | 32 | 1016.4 |
| 20260905233554 | 77 | 57 | 8.0 | 12.0 | 0.00 | 0.00 | 0.00 | 31 | 1016.4 |
| 20260905233103 | 77 | 119 | 5.0 | 15.0 | 0.00 | 0.00 | 0.00 | 32 | 1016.5 |
| 20260905232553 | 77 | 63 | 6.0 | 15.0 | 0.00 | 0.00 | 0.00 | 32 | 1016.4 |
| 20260905232054 | 77 | 49 | 5.0 | 8.0 | 0.00 | 0.00 | 0.00 | 31 | 1016.4 |
| 20260905231617 | 77 | 91 | 3.0 | 12.0 | 0.00 | 0.00 | 0.00 | 31 | 1016.5 |